Погода в Подосиновце

Россия / Кировская область     60°16′40″N   47°04′08″E
темп.,
°C
ветер,
м/с
пор.,
м/с
влажн.,
%
обл.,
%
осадки,
мм/ч
давл.,
гПа
погр.,
м
25 февраля, чт
чт2500:00−21ю389587 0.0 1029238
03:00−20ю499491 0.0 1026304
06:00−20ююв41192100 0.0 1022353
09:00−18ююв51295100 0.2 1020429
12:00−16ююв51294100 0.9 1018546
15:00−15ююв51091100 1.4 1017669
18:00−16ююв3993100 0.1 1017676
21:00−17ююв3993100 0.3 1017560
26 февраля, пт
пт2600:00−18ююв379496 0.1 1017416
03:00−20ююв389597 0.1 1017309
06:00−22ююв399661 0.0 1016280
09:00−20ююв499464 0.0 1014377
12:00−16ююв51089100 0.0 1012566
15:00−15юв51189100 0.0 1009620
18:00−16юв51290100 0.0 1006625
21:00−16юв51294100 0.4 1005663
27 февраля, сб
сб2700:00−16вюв51094100 1.2 1004609
03:00−17вюв4891100 1.4 1005573
06:00−18в3893100 0.0 1005460
09:00−17всв3692100 0.1 1007419
12:00−15всв3588100 0.0 1007543
15:00−13св3588100 0.1 1009596
18:00−17ссв2396100 0.0 101033
21:00−19ссв239888 0.1 101128
28 февраля, вс
вс2800:00−20с239922 0.0 101228
03:00−21с239951 0.0 101433
06:00−22ссв229962 0.0 101420
09:00−19с129663 0.0 1015129
12:00−14с238765 0.0 1015392
15:00−12с248882 0.0 1016493
18:00−16ссз229696 0.0 101720
21:00−18с119853 0.0 102020
1 марта, пн
пн100:00−20з11990 0.0 102020
03:00−20зюз12990 0.0 102120
06:00−20юз229941 0.0 102121
09:00−15юз249566 0.0 1020164
12:00−9юз379388 0.0 1018321
15:00−6юз599192 0.1 1015525
18:00−6юз51293100 0.1 1012745
21:00−4юз61295100 0.9 1008661